| time (UTC) | temp C | wind direction | speed KPH | gust KPH | rain 1hr cm | rain 24hr cm | rain mn cm | humidity % | barometer mb |
| 20260509173104 | 28 | 289 | 3.2 | 19.3 | 0.00 | 0.30 | 0.00 | 53 | 1010.7 |
| 20260509171557 | 27 | 353 | 11.3 | 20.9 | 0.00 | 0.30 | 0.00 | 52 | 1010.9 |
| 20260509170057 | 27 | 291 | 9.7 | 20.9 | 0.00 | 0.30 | 0.00 | 53 | 1011.0 |
| 20260509164553 | 27 | 308 | 8.0 | 19.3 | 0.00 | 0.30 | 0.00 | 54 | 1011.0 |
| 20260509163056 | 27 | 284 | 6.4 | 19.3 | 0.00 | 0.30 | 0.00 | 61 | 1011.0 |
| 20260509161602 | 27 | 305 | 9.7 | 17.7 | 0.00 | 0.30 | 0.00 | 55 | 1011.0 |
| 20260509160052 | 27 | 320 | 6.4 | 20.9 | 0.00 | 0.30 | 0.00 | 54 | 1011.0 |
| 20260509154554 | 26 | 11 | 8.0 | 22.5 | 0.00 | 0.30 | 0.00 | 56 | 1010.9 |
| 20260509153101 | 26 | 320 | 6.4 | 22.5 | 0.00 | 0.30 | 0.00 | 57 | 1011.0 |
| 20260509151553 | 25 | 340 | 9.7 | 17.7 | 0.00 | 0.30 | 0.00 | 61 | 1010.8 |
| 20260509150053 | 25 | 325 | 1.6 | 19.3 | 0.00 | 0.30 | 0.00 | 67 | 1010.7 |
| 20260509144552 | 24 | 1 | 3.2 | 14.5 | 0.00 | 0.30 | 0.00 | 69 | 1010.9 |
| 20260509143051 | 23 | 0 | 1.6 | 9.7 | 0.00 | 0.30 | 0.00 | 72 | 1011.1 |
| 20260509141556 | 23 | 336 | 3.2 | 12.9 | 0.00 | 0.30 | 0.00 | 75 | 1011.1 |
| 20260509140106 | 22 | 347 | 3.2 | 14.5 | 0.00 | 0.30 | 0.00 | 76 | 1011.1 |
| 20260509134551 | 22 | 12 | 3.2 | 14.5 | 0.00 | 0.30 | 0.00 | 77 | 1011.0 |
| 20260509133050 | 21 | 348 | 4.8 | 12.9 | 0.00 | 0.30 | 0.00 | 77 | 1010.8 |
| 20260509131552 | 21 | 320 | 1.6 | 12.9 | 0.00 | 0.30 | 0.00 | 79 | 1010.6 |
| 20260509130051 | 21 | 329 | 8.0 | 19.3 | 0.00 | 0.30 | 0.00 | 80 | 1010.6 |
| 20260509124554 | 20 | 0 | 0.0 | 8.0 | 0.00 | 0.30 | 0.00 | 82 | 1010.6 |
| 20260509123051 | 20 | 0 | 0.0 | 8.0 | 0.00 | 0.30 | 0.00 | 85 | 1010.4 |
| 20260509121555 | 20 | 0 | 0.0 | 0.0 | 0.00 | 0.30 | 0.00 | 86 | 1010.2 |
| 20260509120053 | 20 | 0 | 0.0 | 0.0 | 0.00 | 0.30 | 0.00 | 84 | 1010.2 |
| 20260509114551 | 21 | 0 | 0.0 | 1.6 | 0.00 | 0.30 | 0.00 | 84 | 1010.2 |
| 20260509113053 | 21 | 0 | 0.0 | 0.0 | 0.00 | 0.30 | 0.00 | 83 | 1010.1 |
| 20260509111554 | 21 | 0 | 0.0 | 0.0 | 0.00 | 0.30 | 0.00 | 82 | 1010.0 |
| 20260509110054 | 21 | 0 | 0.0 | 8.0 | 0.00 | 0.30 | 0.00 | 83 | 1010.0 |
| 20260509104554 | 21 | 0 | 0.0 | 3.2 | 0.00 | 0.30 | 0.00 | 84 | 1009.9 |
| 20260509103105 | 21 | 358 | 1.6 | 19.3 | 0.00 | 0.30 | 0.00 | 85 | 1009.8 |
| 20260509101550 | 21 | 304 | 11.3 | 20.9 | 0.00 | 0.30 | 0.00 | 87 | 1009.7 |
| 20260509100059 | 20 | 0 | 6.4 | 17.7 | 0.00 | 0.30 | 0.00 | 87 | 1008.3 |
| 20260509094614 | 20 | 202 | 3.2 | 25.7 | 0.00 | 0.30 | 0.00 | 87 | 1007.5 |
| 20260509093058 | 20 | 320 | 8.0 | 22.5 | 0.00 | 0.30 | 0.00 | 87 | 1007.6 |
| 20260509091557 | 20 | 196 | 11.3 | 30.6 | 0.00 | 0.30 | 0.00 | 87 | 1007.5 |
| 20260509090107 | 20 | 175 | 6.4 | 29.0 | 0.00 | 0.30 | 0.00 | 87 | 1007.5 |
| 20260509084606 | 20 | 320 | 6.4 | 25.7 | 0.00 | 0.30 | 0.00 | 87 | 1007.7 |
| 20260509083108 | 20 | 187 | 3.2 | 16.1 | 0.00 | 0.30 | 0.00 | 87 | 1008.5 |
| 20260509081558 | 20 | 320 | 1.6 | 9.7 | 0.00 | 0.30 | 0.00 | 87 | 1009.1 |
| 20260509080059 | 20 | 0 | 0.0 | 3.2 | 0.00 | 0.30 | 0.00 | 86 | 1010.1 |
| 20260509074612 | 21 | 0 | 0.0 | 3.2 | 0.00 | 0.30 | 0.00 | 86 | 1010.7 |
| 20260509073105 | 21 | 255 | 0.0 | 12.9 | 0.00 | 0.30 | 0.00 | 87 | 1011.5 |
| 20260509071558 | 21 | 0 | 0.0 | 1.6 | 0.00 | 0.30 | 0.00 | 87 | 1011.5 |
| 20260509070058 | 21 | 0 | 0.0 | 0.0 | 0.00 | 0.30 | 0.00 | 86 | 1011.6 |
| 20260509064550 | 21 | 0 | 0.0 | 0.0 | 0.00 | 0.30 | 0.00 | 86 | 1011.6 |
| 20260509063101 | 21 | 0 | 0.0 | 0.0 | 0.00 | 0.30 | 0.00 | 86 | 1011.4 |
| 20260509061552 | 21 | 0 | 0.0 | 1.6 | 0.00 | 0.30 | 0.00 | 87 | 1011.5 |
| 20260509060110 | 20 | 0 | 0.0 | 1.6 | 0.00 | 0.30 | 0.00 | 86 | 1011.5 |
| 20260509054552 | 20 | 0 | 0.0 | 0.0 | 0.00 | 0.30 | 0.00 | 86 | 1011.1 |
| 20260509053104 | 21 | 0 | 0.0 | 0.0 | 0.00 | 0.30 | 0.00 | 86 | 1010.5 |
| 20260509051606 | 21 | 0 | 0.0 | 0.0 | 0.00 | 0.30 | 0.00 | 85 | 1010.7 |
| 20260509050053 | 21 | 0 | 0.0 | 0.0 | 0.00 | 0.30 | 0.00 | 84 | 1010.4 |
| 20260509044552 | 21 | 0 | 0.0 | 0.0 | 0.00 | 0.30 | 0.30 | 84 | 1010.5 |
| 20260509043056 | 21 | 0 | 0.0 | 0.0 | 0.00 | 0.30 | 0.30 | 83 | 1011.0 |
| 20260509041550 | 22 | 0 | 0.0 | 0.0 | 0.00 | 0.30 | 0.30 | 82 | 1010.9 |
| 20260509040107 | 22 | 0 | 0.0 | 4.8 | 0.00 | 0.30 | 0.30 | 82 | 1010.4 |
| 20260509034550 | 22 | 0 | 0.0 | 0.0 | 0.00 | 0.30 | 0.30 | 81 | 1010.4 |
| 20260509033111 | 22 | 0 | 0.0 | 8.0 | 0.00 | 0.30 | 0.30 | 80 | 1010.4 |
| 20260509031553 | 22 | 0 | 0.0 | 1.6 | 0.00 | 0.30 | 0.30 | 80 | 1010.2 |
| 20260509030057 | 22 | 0 | 0.0 | 6.4 | 0.00 | 0.30 | 0.30 | 80 | 1010.1 |
| 20260509024557 | 22 | 0 | 0.0 | 1.6 | 0.00 | 0.30 | 0.30 | 80 | 1009.4 |
| 20260509023050 | 22 | 0 | 0.0 | 0.0 | 0.00 | 0.30 | 0.30 | 79 | 1009.7 |
| 20260509021557 | 22 | 0 | 0.0 | 0.0 | 0.00 | 0.30 | 0.30 | 79 | 1009.6 |
| 20260509020105 | 22 | 0 | 0.0 | 0.0 | 0.00 | 0.30 | 0.30 | 79 | 1009.5 |
| 20260509014549 | 22 | 0 | 0.0 | 0.0 | 0.00 | 0.30 | 0.30 | 79 | 1009.5 |
| 20260509013052 | 22 | 0 | 0.0 | 1.6 | 0.00 | 0.30 | 0.30 | 78 | 1009.3 |
| 20260509011558 | 22 | 0 | 0.0 | 1.6 | 0.00 | 0.30 | 0.30 | 78 | 1009.2 |
| 20260509010051 | 22 | 0 | 0.0 | 1.6 | 0.00 | 0.30 | 0.30 | 78 | 1009.0 |
| 20260509004553 | 22 | 0 | 0.0 | 1.6 | 0.00 | 0.30 | 0.30 | 78 | 1008.9 |
| 20260509003058 | 22 | 0 | 0.0 | 1.6 | 0.00 | 0.30 | 0.30 | 77 | 1008.7 |
| 20260509001553 | 23 | 0 | 0.0 | 1.6 | 0.00 | 0.30 | 0.30 | 77 | 1008.8 |
| 20260509000103 | 22 | 0 | 0.0 | 1.6 | 0.00 | 0.30 | 0.30 | 77 | 1008.8 |
| 20260508234602 | 22 | 0 | 0.0 | 4.8 | 0.00 | 0.30 | 0.30 | 77 | 1009.0 |
| 20260508233103 | 23 | 320 | 0.0 | 12.9 | 0.00 | 0.30 | 0.30 | 76 | 1008.9 |
| 20260508231550 | 23 | 320 | 4.8 | 17.7 | 0.00 | 0.30 | 0.30 | 75 | 1008.9 |
| 20260508224603 | 22 | 0 | 1.6 | 9.7 | 0.00 | 0.30 | 0.30 | 76 | 1008.9 |
| 20260508223055 | 22 | 0 | 1.6 | 8.0 | 0.00 | 0.30 | 0.30 | 78 | 1008.8 |
| 20260508221608 | 22 | 320 | 0.0 | 6.4 | 0.00 | 0.30 | 0.30 | 78 | 1009.0 |
| 20260508220057 | 21 | 0 | 0.0 | 3.2 | 0.00 | 0.30 | 0.30 | 80 | 1009.3 |
| 20260508214559 | 20 | 0 | 0.0 | 4.8 | 0.00 | 0.30 | 0.30 | 81 | 1009.5 |
| 20260508213106 | 20 | 254 | 0.0 | 3.2 | 0.18 | 0.30 | 0.30 | 84 | 1009.8 |
| 20260508211554 | 19 | 286 | 0.0 | 4.8 | 0.30 | 0.30 | 0.30 | 84 | 1010.1 |
| 20260508210057 | 19 | 358 | 3.2 | 16.1 | 0.30 | 0.30 | 0.30 | 85 | 1010.2 |
| 20260508204554 | 18 | 212 | 0.0 | 22.5 | 0.30 | 0.30 | 0.30 | 84 | 1009.3 |
| 20260508203056 | 20 | 119 | 9.7 | 22.5 | 0.13 | 0.13 | 0.13 | 79 | 1010.2 |
| 20260508201551 | 21 | 320 | 3.2 | 14.5 | 0.00 | 0.00 | 0.00 | 72 | 1011.1 |
| 20260508200053 | 21 | 320 | 0.0 | 12.9 | 0.00 | 0.00 | 0.00 | 70 | 1011.6 |
| 20260508194605 | 21 | 320 | 4.8 | 16.1 | 0.00 | 0.00 | 0.00 | 69 | 1011.7 |
| 20260508193114 | 22 | 154 | 6.4 | 17.7 | 0.00 | 0.00 | 0.00 | 66 | 1011.5 |
| 20260508191605 | 22 | 320 | 4.8 | 17.7 | 0.00 | 0.00 | 0.00 | 67 | 1011.4 |
| 20260508190108 | 22 | 320 | 6.4 | 22.5 | 0.00 | 0.00 | 0.00 | 66 | 1012.0 |
| 20260508184556 | 22 | 320 | 4.8 | 22.5 | 0.00 | 0.00 | 0.00 | 65 | 1012.0 |
| 20260508183057 | 22 | 151 | 4.8 | 19.3 | 0.00 | 0.00 | 0.00 | 66 | 1012.2 |
| 20260508181602 | 22 | 320 | 6.4 | 20.9 | 0.00 | 0.00 | 0.00 | 66 | 1012.4 |
| 20260508180057 | 22 | 320 | 4.8 | 16.1 | 0.00 | 0.00 | 0.00 | 66 | 1012.4 |
| 20260508174552 | 22 | 320 | 4.8 | 14.5 | 0.00 | 0.00 | 0.00 | 72 | 1012.3 |